Wind_Speed
16 17 18 19 20 21 22 22 22 23 24 25 27 28 29 30 31 32 33 35 36 37 37 37 38 38 38 38 38 38 38 39 39 39 39 40 40 40 41 41 42 43 44 45 46 48 50 51 52 53 53 54 54 54 55 55 56 56 57 57 58 58 58 58 58 57 56 56 57 56 55 54 53 53 53 53 52 52 53 54 54 55 55 55 55
16 17 19 20 21 22 23 23 24 25 26 27 29 30 31 32 33 33 34 35 36 36 37 37 37 37 37 37 37 37 38 38 38 38 38 38 39 39 40 41 42 43 45 47 48 50 51 52 53 53 53 54 54 55 56 56 57 58 58 58 58 59 59 59 59 58 57 56 56 57 56 55 55 54 53 55 55 54 53 54 55 55 56 56 56
17 18 19 20 21 22 23 24 26 27 28 30 31 32 33 33 34 34 35 35 36 36 37 37 37 37 37 37 36 36 37 37 37 37 37 37 38 39 40 41 43 45 47 49 50 51 52 53 53 54 54 55 56 57 57 58 58 58 58 58 58 57 58 58 58 57 57 55 55 56 56 55 55 55 54 54 55 55 55 55 55 56 56 57 57
17 18 20 20 22 24 25 27 28 29 31 32 33 34 34 35 35 35 35 36 36 37 37 37 37 36 36 36 36 36 36 36 36 36 37 37 38 39 41 43 45 47 48 50 50 51 52 53 54 55 56 57 57 57 58 58 57 57 56 56 56 55 55 55 56 56 55 54 54 55 55 55 54 54 54 54 54 55 56 56 56 56 56 57 57
18 20 21 22 24 26 28 29 30 31 33 34 35 35 35 35 35 35 36 36 36 36 37 37 36 36 36 35 36 36 35 35 35 36 36 37 38 40 42 44 46 48 49 50 51 52 53 54 56 57 57 57 57 56 56 56 55 55 55 54 54 54 54 54 55 55 55 55 54 54 55 56 55 55 55 55 55 54 55 55 56 57 57 56 57
21 23 24 25 26 28 29 31 32 33 34 35 36 36 36 36 36 36 36 36 36 36 37 36 36 35 35 35 35 35 34 35 36 36 36 37 39 42 44 46 47 49 50 52 52 53 54 55 56 56 56 56 55 54 54 54 54 54 53 53 53 53 54 54 55 55 56 56 56 56 57 57 58 57 58 58 58 57 56 56 56 57 58 57 57
24 26 27 28 29 30 31 33 34 34 36 36 37 37 36 37 36 36 37 36 36 36 36 36 35 34 34 34 34 34 35 36 36 36 36 38 41 43 45 47 49 50 52 53 54 54 55 55 55 55 54 54 53 53 52 52 53 53 53 53 53 53 54 55 56 56 57 57 58 58 58 59 59 60 60 60 60 60 60 59 58 58 59 59 58
27 28 29 30 31 32 33 35 35 36 37 37 38 37 37 37 37 37 37 36 36 36 35 35 34 34 34 34 34 35 36 37 36 36 37 40 43 45 47 48 50 51 53 53 54 54 54 54 53 52 52 52 52 52 52 52 51 52 52 53 53 54 55 56 57 57 58 59 59 59 59 60 60 61 61 61 61 61 62 62 61 60 60 60 60
30 31 31 32 33 33 35 36 36 37 38 38 38 37 37 37 38 37 37 36 36 35 35 34 34 34 34 35 36 37 37 37 37 37 39 42 44 46 48 49 51 52 53 53 53 53 52 52 51 51 51 51 51 51 51 50 51 51 52 53 54 55 56 57 59 60 60 60 61 61 61 62 62 62 62 61 61 61 61 62 63 63 62 62 61
32 32 33 33 33 34 36 37 37 38 38 38 38 37 38 38 38 37 36 36 36 35 34 34 34 34 35 36 37 37 38 37 37 38 41 43 45 47 49 50 52 52 52 52 52 51 51 50 50 50 50 49 49 49 49 49 50 52 53 55 56 57 58 59 60 61 62 62 62 63 63 64 65 65 64 64 64 64 64 64 64 63 63 63 62
33 33 33 33 34 35 36 37 38 38 38 38 37 37 38 39 38 37 36 36 36 35 35 35 35 36 36 37 38 38 38 38 38 40 42 44 46 48 49 51 52 51 51 50 50 50 49 49 49 49 48 47 47 47 48 49 51 52 54 56 57 58 59 60 61 62 62 63 64 64 64 63 63 63 62 61 60 60 62 63 65 65 65 64 63
33 33 33 33 34 36 37 37 38 38 38 37 37 38 39 39 38 36 35 35 36 36 35 36 36 37 37 37 38 38 38 38 39 41 43 46 47 48 49 50 50 50 49 48 48 48 48 48 48 47 46 46 46 46 48 49 51 53 55 56 57 58 60 61 62 63 64 64 62 59 58 57 56 54 53 52 51 50 50 53 57 62 64 65 65
34 34 34 34 35 37 37 37 37 37 37 37 38 39 39 38 37 36 35 36 36 36 36 36 37 37 37 38 38 38 39 39 41 42 45 46 47 48 49 49 48 48 47 46 46 47 47 46 45 45 45 45 45 46 48 50 51 53 54 55 56 58 60 62 64 65 63 59 53 49 49 50 50 48 46 45 44 43 42 42 44 49 55 61 64
34 34 34 35 36 36 37 37 37 37 37 38 38 39 39 37 36 36 36 36 36 37 37 37 37 37 37 38 38 39 39 40 42 44 46 46 47 47 47 47 46 46 45 45 45 45 44 44 44 44 44 44 45 46 48 50 51 52 53 54 56 58 61 63 63 60 54 48 45 44 45 48 48 46 44 44 44 43 42 38 36 37 42 50 58
34 34 34 35 36 36 36 36 37 37 38 38 39 39 38 37 36 36 36 36 37 37 37 37 37 37 38 38 39 39 40 41 43 44 45 46 46 46 45 45 44 44 44 44 43 43 42 43 43 43 43 44 45 46 48 50 51 51 52 54 56 59 62 62 58 52 44 41 42 46 49 49 48 45 43 42 41 41 40 37 34 33 33 38 46
33 33 34 35 35 36 36 36 37 38 38 39 39 38 37 36 36 37 37 37 38 38 37 37 37 38 38 39 39 40 41 42 43 44 44 44 44 44 44 43 43 43 42 41 41 41 41 41 41 42 42 44 45 46 48 49 50 51 52 54 56 60 60 56 50 43 39 38 44 51 53 48 44 41 39 39 38 38 37 36 36 35 32 31 35
32 34 34 35 35 36 36 37 38 38 39 39 39 38 37 37 37 38 38 38 38 38 38 38 38 38 39 39 40 40 41 42 42 42 42 42 43 42 42 42 41 40 40 39 39 39 40 40 40 41 42 43 45 46 48 49 50 50 51 53 57 59 55 47 41 37 36 40 47 52 49 43 41 41 41 41 41 39 38 36 36 37 35 31 30
33 34 34 35 36 36 37 37 38 39 39 39 38 37 37 37 38 39 39 39 39 39 38 39 39 38 39 39 40 41 41 41 41 41 41 41 41 41 41 40 39 38 37 37 38 38 38 39 40 41 42 43 45 47 48 49 50 50 51 54 57 57 50 40 35 33 35 43 49 48 44 42 42 42 41 41 41 40 38 37 36 35 34 32 30
33 34 34 35 36 36 37 38 39 39 39 39 38 37 37 38 39 40 40 40 40 39 39 39 39 39 39 40 40 40 39 39 39 39 39 39 39 39 38 37 36 36 36 36 37 37 38 39 40 41 42 43 45 47 48 49 49 50 51 54 57 55 46 37 32 32 37 45 48 44 41 40 39 39 40 41 41 39 37 37 36 32 29 28 28
33 34 34 35 36 37 38 38 39 39 39 39 38 38 38 39 40 41 41 41 40 40 41 40 39 39 40 40 39 38 37 37 37 37 37 37 37 36 35 34 34 34 35 35 36 36 37 39 40 41 42 43 45 47 48 48 49 50 51 54 57 53 43 35 32 33 38 46 47 42 39 38 39 40 42 44 43 39 36 37 35 28 24 22 22
34 34 35 36 36 37 38 38 39 39 39 39 38 38 39 39 40 42 43 42 41 41 42 42 41 40 40 37 35 35 35 35 35 35 35 35 34 33 32 31 31 32 33 33 34 35 37 38 39 40 41 43 45 46 48 48 49 50 51 54 57 53 42 34 32 33 37 45 48 43 38 38 42 44 46 48 46 39 34 34 30 25 22 19 17
34 35 36 36 37 38 38 39 39 39 40 40 39 39 39 40 42 43 43 42 42 42 43 43 42 40 36 33 32 33 33 33 33 33 33 32 31 30 29 29 30 31 31 32 33 34 35 36 37 39 41 43 44 46 47 48 49 50 51 53 56 53 43 33 32 33 36 42 47 44 40 40 42 45 48 49 46 40 35 30 26 23 22 19 14
35 36 36 37 38 39 39 39 39 40 40 40 40 40 41 42 44 45 44 43 42 42 43 42 39 34 31 30 30 31 31 31 32 31 31 29 28 28 27 28 28 29 30 30 31 32 33 35 37 40 41 43 44 46 47 48 49 50 52 53 55 54 45 35 32 33 34 39 44 44 42 42 42 45 48 47 44 41 36 27 21 20 21 19 12
34 36 37 38 38 39 39 39 40 41 41 41 41 42 43 44 45 45 44 43 44 43 41 37 32 29 28 28 29 29 29 30 30 29 28 27 26 26 25 26 27 27 28 28 29 30 32 35 37 40 42 44 45 45 47 48 49 51 52 52 53 54 49 39 32 31 32 36 41 43 43 44 44 47 48 45 43 42 36 26 20 18 18 16 9
34 35 36 38 39 39 40 40 41 42 42 43 43 44 45 46 46 45 44 44 43 40 34 30 26 26 26 27 27 27 28 28 27 25 25 25 24 24 24 25 26 26 26 27 27 30 32 35 37 39 42 44 45 46 47 48 50 51 52 52 52 53 52 45 35 31 32 35 39 42 45 46 47 49 48 45 43 41 33 25 21 19 17 14 8
33 35 36 37 38 39 40 41 42 43 43 44 44 45 46 46 45 44 43 41 37 31 27 25 24 24 25 25 26 26 26 25 24 23 23 23 22 22 23 24 24 25 25 26 27 30 32 35 37 39 41 43 45 47 48 49 50 51 51 52 52 52 54 50 41 35 34 35 36 40 45 47 47 48 48 44 42 40 32 23 21 23 20 14 7
34 35 36 37 37 38 40 41 42 42 43 43 44 45 45 44 43 41 38 33 28 25 23 23 23 23 23 24 24 24 23 22 22 22 22 21 21 21 22 23 23 23 24 25 27 30 32 34 36 38 40 42 44 46 48 49 49 50 51 52 52 52 54 54 50 43 38 35 35 38 43 46 46 46 46 44 42 40 33 23 20 23 22 18 11
35 36 36 36 37 38 39 40 41 41 42 42 42 42 43 41 38 34 29 25 23 22 22 21 21 22 22 23 23 22 21 20 20 20 20 19 20 20 21 21 22 22 24 25 27 29 31 33 35 37 39 41 43 45 47 48 49 50 50 51 52 52 53 53 53 50 44 37 34 36 39 42 45 45 46 45 42 40 34 24 19 20 21 20 16
36 36 36 36 37 38 39 39 39 39 39 39 40 41 40 36 30 25 23 21 20 20 20 20 20 21 21 21 20 19 19 19 19 18 18 18 18 19 20 21 21 22 23 25 26 29 31 32 34 36 38 40 42 44 45 47 49 50 50 51 51 52 52 52 53 53 49 41 36 36 37 40 43 45 46 45 42 41 36 26 20 19 20 21 18
36 36 36 37 37 38 38 38 38 37 37 38 38 37 33 28 23 21 19 18 18 18 19 19 19 20 19 18 17 17 18 18 17 17 17 17 17 18 19 20 21 22 23 25 26 28 30 32 34 36 38 40 42 43 44 45 47 49 50 51 51 51 52 52 52 53 52 47 41 37 37 39 41 43 45 44 41 40 38 30 20 18 19 20 17
38 37 37 37 37 38 37 37 36 36 36 35 32 29 25 22 20 18 17 17 17 17 17 18 18 18 17 16 16 16 16 16 16 16 16 16 17 18 18 20 21 22 23 25 26 28 29 31 33 35 37 39 41 43 44 45 46 47 49 50 51 51 51 52 52 52 53 51 47 41 38 38 39 41 43 44 40 38 38 34 25 17 15 15 14
38 38 37 37 37 36 36 36 36 35 32 29 25 23 22 20 18 16 15 16 16 16 16 16 16 16 15 15 15 15 15 15 15 15 16 16 17 17 18 20 21 22 23 24 26 27 29 31 32 34 36 38 40 42 44 44 45 46 47 49 50 50 51 51 52 52 52 52 51 47 42 39 38 38 39 41 40 37 36 35 31 23 15 11 10
37 36 36 36 35 35 36 35 34 31 27 24 22 21 19 17 16 15 15 15 15 15 15 15 14 14 14 14 14 14 15 15 15 15 16 16 17 18 19 20 21 22 23 24 26 27 29 30 32 33 35 37 39 41 43 44 45 46 46 47 49 50 50 51 51 51 51 51 51 51 47 42 38 36 36 38 39 37 35 34 33 29 22 14 8
34 34 34 34 34 34 31 28 26 25 23 21 19 18 17 16 15 15 14 14 14 14 14 14 14 14 14 13 14 14 15 14 15 15 16 17 17 18 19 20 21 22 23 25 26 27 29 30 31 33 35 36 38 40 42 43 44 45 46 46 47 48 49 50 49 49 49 50 50 50 50 48 42 36 34 35 35 34 34 33 32 31 29 23 15
31 33 33 32 30 28 24 22 22 22 20 18 17 16 16 15 14 14 13 13 13 13 13 13 13 12 12 13 13 14 14 14 14 15 16 16 17 18 19 21 22 23 24 25 26 27 29 30 31 33 34 36 37 39 41 42 43 44 45 45 46 46 47 48 48 48 48 49 49 49 49 50 47 41 36 33 32 32 31 31 32 31 30 29 25
30 32 31 26 22 20 20 20 21 19 17 15 15 15 15 14 13 13 13 12 13 13 12 12 12 12 12 12 13 14 14 14 14 15 16 16 17 18 19 21 22 23 24 25 26 28 29 30 31 32 34 35 37 38 39 41 42 43 44 44 45 45 45 46 47 47 47 47 48 48 47 47 48 46 41 35 32 31 31 30 30 30 29 28 27
29 28 25 20 18 18 19 20 19 16 14 13 14 14 14 13 13 12 12 12 12 12 11 11 11 11 11 12 12 13 13 14 15 16 17 17 18 19 20 21 22 23 24 25 26 27 28 30 31 32 33 34 35 37 38 39 41 42 43 43 44 44 44 45 45 46 46 46 46 46 46 46 46 46 44 40 35 32 30 30 29 28 28 27 24
26 23 20 18 19 20 20 19 16 13 12 13 14 15 14 13 13 13 13 12 12 11 10 10 10 10 11 11 11 12 13 14 16 17 18 19 20 20 21 22 23 24 25 25 26 27 28 29 30 31 32 33 34 35 37 38 39 40 42 42 43 43 43 43 43 43 44 45 45 45 45 45 45 45 45 44 40 34 30 28 27 25 24 24 22
21 19 19 20 22 22 20 16 13 11 12 14 15 15 15 14 13 13 12 12 11 10 10 10 10 10 11 11 12 13 14 15 16 17 18 19 20 21 22 23 24 25 25 26 27 27 28 29 30 30 31 32 33 34 35 36 37 39 40 41 41 42 42 42 42 42 42 42 43 44 44 44 44 44 43 43 42 40 35 30 26 25 23 22 22
19 20 20 22 22 20 16 13 12 12 14 15 16 16 15 14 13 13 12 12 11 10 9 9 9 10 11 11 12 13 14 15 16 17 18 19 20 21 22 22 24 25 26 26 27 28 28 29 29 30 31 32 32 33 34 35 36 37 38 39 40 40 40 40 40 41 40 40 41 42 42 42 42 42 42 41 41 41 40 36 30 26 24 22 21
19 20 21 22 21 17 13 12 12 13 15 17 17 16 15 14 14 13 13 12 11 9 9 9 9 9 10 11 12 13 13 14 15 16 17 18 20 21 22 22 23 25 26 27 27 28 29 30 30 30 31 31 32 33 33 34 35 35 36 37 38 38 39 39 39 39 39 39 39 39 39 40 40 40 40 40 40 39 39 38 36 32 27 23 20
19 21 22 22 18 14 12 13 13 15 17 18 17 17 16 15 14 14 13 12 11 9 9 9 8 9 10 11 12 13 14 15 15 16 17 19 20 22 23 24 24 25 27 28 28 29 29 30 31 31 31 31 32 32 32 33 34 35 35 35 36 36 37 37 38 38 38 37 37 37 37 37 38 38 38 38 38 38 37 36 36 35 33 29 23
17 19 20 20 17 15 14 14 14 16 17 18 18 18 17 15 15 15 14 13 11 10 9 9 9 9 10 12 13 14 15 15 16 17 19 20 22 23 24 25 26 27 28 29 30 30 30 31 31 31 32 31 32 32 32 32 33 34 34 34 35 35 35 35 35 36 36 36 36 35 35 35 35 36 36 36 35 35 35 35 34 33 33 32 30
15 17 20 21 20 18 16 15 15 16 18 19 19 18 17 16 16 16 15 14 12 11 11 11 11 11 11 13 14 15 16 17 18 19 20 22 23 25 26 27 28 28 29 30 30 31 32 33 33 33 33 33 32 32 32 32 33 33 34 34 34 33 34 34 34 34 34 34 34 34 34 33 33 33 33 34 34 33 33 33 32 32 31 30 30
17 20 22 22 20 17 16 16 17 18 20 20 20 19 18 18 17 17 16 15 13 13 13 13 13 13 14 14 15 17 18 19 20 21 22 23 25 26 28 28 29 29 29 30 31 31 33 34 35 35 35 35 34 33 33 33 33 33 33 33 33 33 32 33 32 32 32 32 33 33 32 32 31 31 31 31 31 31 31 31 30 30 30 29 28
19 22 24 22 19 17 17 17 18 20 21 21 20 20 19 19 19 18 18 16 15 15 15 15 15 16 16 16 17 18 19 21 22 22 24 25 26 27 29 29 30 29 29 30 30 31 32 34 36 37 38 38 37 36 35 34 33 33 33 33 32 32 32 32 32 32 31 31 31 31 31 30 30 30 29 29 28 29 29 29 29 29 28 28 27
20 23 23 22 20 19 18 19 20 21 21 21 21 20 20 20 20 20 20 18 18 17 17 17 17 18 18 19 19 20 21 22 23 24 25 26 27 29 29 30 30 30 30 30 30 31 31 32 34 36 38 39 39 37 36 35 34 33 33 32 32 32 31 31 31 31 31 31 30 30 30 30 29 29 28 28 27 27 26 26 27 27 27 26 26
21 23 23 23 23 21 20 19 20 21 21 21 21 21 21 21 22 22 21 20 20 20 19 19 20 20 21 21 22 22 23 24 25 26 26 28 29 30 31 31 31 31 32 32 31 31 31 32 33 34 35 37 38 39 38 36 34 33 33 33 33 32 31 31 31 31 31 31 30 30 29 29 29 28 27 26 26 26 25 24 24 24 24 25 25
21 23 23 23 22 21 20 20 20 21 22 22 22 22 22 23 22 22 22 22 22 22 22 22 22 23 23 24 24 25 25 26 27 28 29 30 31 32 32 32 32 32 33 33 33 33 32 32 32 32 33 34 35 38 39 38 37 35 34 34 33 33 32 31 31 30 30 30 30 30 29 29 28 28 27 26 25 25 24 23 23 22 22 22 22
20 21 21 21 20 19 19 19 20 21 22 23 23 23 24 24 23 23 23 23 24 24 25 25 25 25 26 26 27 27 28 29 29 30 31 32 33 34 34 33 33 33 34 34 35 35 34 33 32 32 32 32 33 35 37 39 39 38 37 35 35 34 32 31 31 31 30 30 30 30 29 29 29 28 27 27 26 25 23 23 22 22 21 20 20
19 19 18 18 18 18 19 19 20 21 22 23 24 25 25 25 24 24 24 24 25 26 27 27 27 27 28 28 28 29 29 30 31 31 33 34 35 36 35 35 35 35 35 35 35 36 35 34 34 33 33 33 33 33 35 37 39 39 39 38 36 35 33 32 31 31 30 30 29 29 29 29 29 28 28 27 26 25 24 23 22 21 21 20 19
Wind_Direction
275 280 283 283 285 289 292 295 297 298 299 298 299 300 302 304 304 304 304 303 303 304 304 305 305 304 304 304 304 304 305 306 306 306 306 306 307 307 308 308 309 309 309 309 309 308 308 308 307 307 306 305 304 304 303 302 301 300 300 299 298 297 295 294 292 290 289 288 286 284 282 281 279 278 275 272 269 265 263 262 261 260 260 259 258
272 277 280 281 282 286 289 292 295 296 296 297 297 299 301 302 302 302 302 302 303 304 304 305 304 304 303 303 304 304 305 306 306 307 307 308 309 309 310 310 311 310 310 309 309 309 309 308 307 307 306 305 305 304 303 303 302 301 300 299 298 297 296 294 293 291 289 288 286 284 283 281 279 277 276 274 272 269 265 262 260 259 258 257 256
272 277 279 280 282 285 287 290 292 293 294 295 296 298 300 301 301 301 301 302 304 305 305 305 304 304 304 304 305 305 306 306 307 307 308 309 310 311 311 311 311 310 310 310 310 310 309 309 308 308 307 307 306 305 305 304 303 302 301 300 299 298 297 296 294 293 291 289 288 285 284 282 279 277 275 274 272 270 268 264 261 259 257 255 254
272 275 276 278 281 284 287 289 291 292 293 294 296 298 299 300 300 300 301 303 304 305 305 304 304 304 304 305 305 306 306 307 307 308 309 310 311 311 312 312 312 312 312 312 311 311 310 310 309 309 308 308 307 307 306 305 304 303 302 302 301 300 299 298 297 295 293 291 290 288 285 283 281 278 276 273 271 270 268 266 263 260 258 255 253
273 274 275 277 281 285 288 289 291 292 293 294 295 297 298 298 299 300 301 303 304 305 305 305 305 304 304 305 305 306 306 307 308 309 310 310 311 312 313 314 315 314 313 312 312 312 311 310 310 310 309 309 308 308 307 307 306 306 305 304 303 302 301 300 299 298 296 294 292 290 288 285 283 280 277 274 271 269 268 266 264 262 259 256 253
272 274 276 279 282 285 288 289 290 291 292 293 295 296 296 296 298 300 302 303 304 305 305 305 305 304 304 305 305 306 306 307 308 309 309 310 312 314 315 316 316 315 314 313 312 312 311 311 311 311 310 310 310 309 309 309 308 308 307 306 306 305 304 303 301 300 298 297 295 292 290 288 285 282 279 276 273 270 267 265 263 262 260 257 254
271 273 276 279 281 285 287 288 289 289 290 292 294 294 294 295 298 300 302 303 304 305 305 305 305 304 304 305 305 306 306 308 308 308 308 310 313 315 316 317 317 315 314 313 312 312 311 311 311 312 312 312 311 311 311 311 310 310 309 309 308 307 306 304 303 301 300 298 296 294 292 289 287 284 281 278 275 272 268 264 261 260 259 258 255
271 273 276 278 280 283 285 286 287 288 289 291 292 293 293 295 298 300 301 303 304 305 305 305 305 305 305 305 305 306 307 308 307 307 309 312 314 316 316 316 316 315 313 312 312 312 312 313 313 313 314 314 314 314 313 313 313 312 312 311 310 309 308 307 306 304 302 301 299 297 295 292 289 286 283 280 277 274 270 267 262 258 256 256 255
271 273 275 276 279 281 282 283 285 286 288 289 290 291 292 295 297 299 300 303 304 305 305 305 305 305 305 305 305 306 307 307 307 307 309 312 314 315 315 315 315 314 313 313 313 314 314 315 315 316 316 317 316 316 316 316 315 314 314 313 313 312 311 310 309 307 306 305 303 301 299 296 293 290 287 284 280 276 272 268 264 260 256 252 251
269 271 273 275 277 278 279 281 282 284 285 287 288 289 292 294 296 298 301 303 304 305 305 305 306 306 305 305 306 307 307 307 306 307 310 312 313 314 314 314 314 314 314 314 315 316 316 317 318 318 319 319 319 318 318 318 317 317 317 317 316 315 314 312 311 310 308 307 305 302 300 297 294 291 288 285 282 279 275 270 266 261 257 252 248
268 270 272 273 274 275 276 278 280 282 283 285 287 289 292 294 296 298 302 303 304 304 304 305 306 306 305 306 306 307 307 306 306 307 310 312 313 314 314 314 314 314 315 316 317 318 319 319 320 321 321 321 321 320 320 320 320 321 320 319 319 317 315 314 312 311 310 309 307 304 302 299 296 294 291 288 284 280 276 272 267 262 257 252 247
268 270 271 271 272 273 274 276 279 281 282 284 287 290 292 294 296 299 302 303 304 304 304 305 306 305 305 306 306 306 305 305 305 307 310 312 313 314 315 314 315 316 317 319 319 320 321 322 323 323 323 323 322 322 322 323 323 323 322 321 320 318 317 316 315 314 313 311 310 308 307 305 304 303 300 296 292 288 282 277 270 264 258 252 247
269 269 270 270 270 271 273 276 278 280 282 285 287 289 291 294 297 300 302 303 303 304 305 305 306 305 305 306 306 305 304 304 305 308 311 313 314 314 315 315 317 318 319 320 321 322 323 324 324 324 324 324 324 324 325 325 325 324 323 323 322 321 320 319 319 318 317 315 315 316 316 315 314 313 311 308 305 301 295 287 278 269 260 253 247
268 268 268 268 269 271 274 276 278 280 282 284 287 289 291 293 297 300 301 302 303 304 305 306 306 305 305 305 305 304 304 305 308 310 312 314 314 314 315 317 318 320 321 322 323 324 325 326 326 326 326 326 326 327 327 327 326 326 326 326 325 324 323 323 322 321 320 321 322 323 323 321 318 317 315 313 311 308 304 297 287 276 265 256 248
267 267 267 268 270 272 274 276 278 280 282 284 286 288 290 293 297 299 300 301 302 303 305 306 306 305 305 305 305 305 306 308 310 312 313 313 314 315 317 319 320 321 323 324 325 326 327 328 328 328 328 328 329 329 329 329 329 329 330 329 328 328 327 326 325 324 323 323 324 326 326 324 321 319 317 315 313 311 308 303 297 289 274 259 250
266 267 267 269 271 273 275 276 278 279 281 283 285 287 289 292 296 298 299 300 301 303 304 305 305 305 304 305 306 306 308 310 311 312 313 314 315 317 319 320 322 323 325 327 328 328 329 330 330 330 331 331 332 332 332 331 332 333 334 332 332 332 331 329 328 325 322 323 327 329 329 327 327 327 326 324 322 318 312 306 301 297 288 271 257
266 267 268 270 272 273 275 276 276 278 280 282 284 286 288 292 295 297 299 300 301 303 304 305 305 305 305 306 307 308 309 310 311 312 313 315 317 319 321 322 324 325 327 329 330 330 331 332 332 333 334 334 334 334 334 335 336 337 337 335 335 336 335 333 330 327 325 328 331 332 331 332 334 333 329 325 322 320 316 308 300 297 294 286 271
266 267 268 270 271 272 273 274 275 277 279 281 283 285 288 291 295 297 299 301 302 303 304 305 304 304 305 306 307 308 309 310 311 312 314 317 319 321 322 324 326 328 329 331 332 333 334 334 335 336 337 336 336 337 338 339 340 340 339 339 339 340 339 337 334 333 334 336 336 336 336 337 337 334 330 327 326 324 321 313 305 300 296 290 280
266 267 268 268 269 270 271 272 275 277 278 280 282 284 287 290 293 296 299 301 302 303 303 304 304 304 304 304 305 308 309 310 312 314 317 319 321 322 324 326 328 330 332 333 335 336 337 338 339 339 339 339 340 342 343 343 343 343 343 343 344 344 343 340 340 342 343 342 342 342 341 340 339 338 338 337 337 334 327 321 315 309 301 292 281
267 267 267 267 268 269 270 272 274 276 278 280 281 283 287 290 292 295 297 300 302 303 302 303 302 301 301 302 305 308 309 311 314 317 319 321 322 323 325 328 330 333 335 336 338 339 341 343 342 341 341 342 344 346 346 345 345 346 346 347 348 348 346 344 346 347 346 348 348 346 344 345 346 346 343 342 342 340 332 326 323 319 312 299 282
268 266 266 266 267 269 271 272 274 276 277 279 280 283 286 289 292 293 295 298 301 302 302 302 301 298 297 301 305 308 309 313 316 319 320 321 322 325 327 330 333 335 337 339 341 344 346 346 345 345 346 347 348 349 348 348 348 349 349 351 353 353 349 346 349 348 347 351 352 349 348 351 351 350 346 341 342 342 337 332 328 326 326 315 287
268 266 265 266 267 268 270 271 273 275 276 278 280 283 286 288 290 292 295 299 300 300 301 300 297 294 296 302 306 308 311 315 318 319 320 321 324 327 329 332 336 338 340 343 346 348 349 349 349 350 351 351 352 352 351 350 351 352 353 354 356 356 351 347 349 348 347 352 354 352 353 354 352 350 347 344 344 346 344 338 332 330 334 330 303
269 267 267 266 266 267 268 270 272 273 275 277 280 283 285 287 289 291 295 298 299 299 298 295 292 294 299 304 307 310 313 316 318 319 321 323 326 328 332 336 338 340 343 347 349 351 352 354 355 356 356 355 355 354 353 353 354 355 356 357 359 359 355 350 349 347 347 353 355 355 358 357 353 349 348 348 349 348 347 347 342 336 337 335 316
269 269 268 268 267 267 268 269 270 271 274 277 280 282 284 286 289 292 295 296 297 296 294 290 290 297 304 306 308 311 314 316 317 319 322 325 328 331 334 338 340 343 347 350 351 353 356 358 359 359 359 359 357 356 356 357 358 358 358 359 1 2 1 356 351 348 351 355 356 358 1 1 356 352 352 353 352 351 353 356 353 346 342 339 323
266 268 268 268 268 269 269 269 270 271 274 277 280 282 284 286 289 292 294 295 294 292 289 289 295 302 305 306 309 312 315 316 318 321 325 327 330 333 337 341 343 347 350 350 352 356 358 359 360 1 2 1 360 359 359 360 0 1 0 360 1 4 5 2 355 352 356 358 359 1 4 3 359 357 358 358 356 357 360 1 2 5 2 353 344
263 264 265 267 269 270 270 271 272 274 276 278 281 283 285 288 290 292 293 293 290 288 290 295 301 303 304 307 310 312 314 316 320 324 327 329 332 336 340 343 345 348 350 350 353 357 359 359 360 1 2 1 1 1 2 2 2 2 2 1 1 4 8 7 3 1 1 0 2 4 6 7 4 360 1 3 1 1 4 9 17 21 16 9 11
262 263 264 266 269 270 271 273 275 277 279 281 282 285 287 290 292 292 290 288 286 288 294 299 301 303 305 307 309 310 314 320 324 327 328 331 336 339 342 344 346 348 348 349 354 358 359 359 360 1 2 1 1 3 4 4 4 4 3 3 3 4 8 9 9 9 6 2 6 8 8 10 10 5 3 6 7 6 7 15 28 28 22 20 26
263 264 265 267 269 271 272 274 276 279 281 282 285 287 289 291 292 288 283 281 284 291 296 299 301 303 305 306 307 311 318 324 325 327 330 334 338 341 343 344 345 346 347 349 354 358 359 359 0 2 2 1 2 4 4 4 6 6 5 5 5 5 8 10 12 13 11 7 9 11 10 11 14 12 8 9 12 12 12 17 32 38 37 34 32
264 264 266 268 270 271 273 276 278 279 282 284 286 288 290 290 287 280 277 281 288 293 296 298 300 302 302 304 309 316 322 324 325 328 332 335 338 340 342 343 343 345 347 349 354 358 358 358 360 1 1 1 3 4 4 5 6 7 7 7 7 7 8 9 12 15 15 12 13 14 12 12 14 15 13 11 13 16 17 19 29 43 52 50 41
263 265 266 268 269 271 274 276 278 280 282 285 288 289 288 283 277 274 278 286 291 293 295 296 297 298 300 305 314 320 321 322 326 330 333 335 337 338 340 342 342 343 346 349 353 357 357 356 358 360 0 1 3 3 4 5 6 7 8 9 9 9 8 9 12 15 17 17 17 16 14 12 13 15 16 14 14 17 20 21 27 42 56 58 52
264 265 266 267 270 272 274 275 277 281 284 286 288 287 280 272 271 275 282 288 290 291 292 292 293 297 303 311 316 318 319 321 326 329 331 333 334 335 338 341 341 342 346 348 352 355 355 355 356 358 360 1 3 3 3 5 6 7 8 9 10 10 10 10 11 14 16 19 20 20 17 13 12 14 16 16 17 19 21 24 28 38 52 63 69
264 265 267 269 270 272 274 276 279 281 282 282 281 276 269 266 272 278 282 285 286 286 287 289 293 301 308 312 313 314 317 321 323 327 329 331 332 333 337 340 340 342 345 348 350 353 353 353 354 357 359 0 2 2 3 4 5 7 8 9 10 11 11 11 11 12 14 17 21 23 21 17 13 12 14 16 18 20 22 24 27 32 38 51 70
265 266 268 270 271 274 277 278 277 276 275 272 268 264 262 267 275 279 279 280 280 281 284 289 297 303 307 309 311 312 315 318 321 326 328 329 330 333 336 337 338 341 343 346 348 351 351 351 352 355 357 359 1 2 3 4 5 6 7 9 10 12 12 12 12 12 12 15 18 22 24 22 18 13 13 15 16 19 22 24 26 30 35 40 56
265 267 268 270 273 275 275 272 268 267 266 263 258 258 264 272 276 276 275 274 274 279 286 293 300 304 304 306 308 309 312 317 322 326 328 328 330 333 334 335 337 339 342 344 346 348 349 349 351 353 355 357 359 1 2 3 4 5 6 8 9 11 12 13 13 13 13 14 16 19 23 25 22 18 15 16 15 16 20 24 26 29 35 40 47
260 262 268 271 272 269 264 260 262 262 257 252 253 259 268 273 272 270 269 270 275 282 288 294 299 300 301 303 305 307 312 317 321 324 326 327 329 331 331 333 337 339 341 343 344 345 346 348 349 352 353 355 357 359 0 2 3 4 6 7 8 10 11 13 14 14 14 15 15 17 20 24 25 22 19 17 16 13 15 20 24 26 30 35 41
256 260 266 267 262 257 258 259 259 252 244 244 255 263 266 267 266 264 264 268 275 281 288 293 297 298 299 301 303 306 312 316 319 322 324 327 329 330 331 334 337 338 339 341 342 343 344 345 348 350 352 354 356 357 359 0 1 3 5 6 7 8 10 11 13 14 15 16 16 16 18 21 25 26 24 21 18 15 14 14 16 18 21 27 34
254 257 257 256 256 260 261 254 245 239 240 249 258 261 262 262 260 259 263 268 273 278 284 289 290 290 291 294 299 305 311 315 319 322 326 328 329 330 332 335 336 336 337 339 339 340 342 343 346 348 350 352 354 356 357 359 360 1 3 4 6 6 8 9 11 13 15 16 17 17 17 19 22 25 27 26 24 20 17 14 12 12 14 16 23
249 251 250 253 258 257 249 239 234 237 246 253 257 259 258 256 254 254 259 265 270 275 280 282 284 286 289 294 300 306 311 315 319 323 326 327 328 330 332 333 332 332 334 335 336 337 339 341 343 345 347 349 351 353 355 357 358 359 1 2 4 5 6 8 9 11 13 15 16 17 18 18 20 22 25 28 28 26 23 18 13 11 10 10 13
249 250 252 254 250 241 232 229 232 241 249 252 254 253 250 249 251 254 258 263 267 272 278 282 284 289 294 300 305 308 311 315 318 320 322 323 325 327 328 327 327 329 330 330 331 333 336 338 340 341 343 345 347 349 351 354 355 357 358 360 1 3 4 6 7 9 11 13 15 17 18 18 19 20 22 25 28 29 29 26 19 13 9 6 7
257 255 252 246 236 228 225 229 237 243 248 249 249 246 243 244 248 252 256 261 263 266 270 272 274 279 285 293 300 304 307 310 313 315 317 319 321 322 322 322 323 324 324 325 327 331 333 334 336 337 339 341 343 345 347 349 351 354 356 357 358 -0 2 4 5 7 8 10 13 15 17 18 19 20 20 21 24 27 29 30 29 22 14 8 5
262 254 243 232 224 222 229 239 243 245 246 246 244 242 239 240 245 249 252 255 256 259 262 263 265 269 275 282 289 295 299 303 306 310 313 316 316 317 317 318 320 321 321 322 326 329 330 330 332 334 336 337 339 341 343 345 347 349 352 354 355 357 359 1 3 4 6 8 9 12 15 17 18 20 20 20 22 24 26 29 31 31 26 18 10
263 249 232 223 222 230 242 247 246 245 245 244 242 238 237 239 243 246 248 249 250 252 253 256 260 266 271 277 283 289 294 300 304 308 311 314 315 316 317 319 320 320 320 322 324 325 326 326 328 330 332 333 335 337 339 341 343 344 347 350 352 353 355 358 360 1 3 5 7 8 11 14 16 18 20 20 21 22 23 25 28 31 31 29 23
258 246 232 227 234 246 252 251 249 247 246 243 239 236 234 237 241 243 245 245 245 246 248 253 258 265 272 279 285 290 295 300 305 309 312 314 317 318 320 320 320 320 321 321 321 321 323 323 325 326 328 330 332 334 336 337 338 340 342 345 347 349 351 353 356 358 360 2 4 5 8 10 12 15 18 19 20 21 21 22 24 27 30 31 30
254 251 242 239 244 251 255 255 252 250 247 242 237 233 231 233 238 242 243 243 244 245 249 254 260 265 271 278 284 290 295 300 304 308 312 315 318 319 320 320 320 320 320 319 319 319 320 322 323 324 326 328 329 331 333 334 335 336 338 340 342 344 347 349 352 354 356 358 360 2 4 6 8 10 13 16 18 19 21 21 22 23 26 28 29
254 250 241 238 241 248 252 253 252 250 245 240 234 231 230 233 237 241 242 244 246 249 253 258 264 268 272 277 283 288 294 299 304 308 312 315 317 318 318 318 318 317 316 316 316 317 318 319 321 322 323 325 327 328 329 330 331 332 333 336 338 340 342 344 347 349 351 353 356 358 360 2 4 6 8 10 13 15 18 20 21 21 22 25 26
249 242 235 235 242 249 251 250 249 247 242 237 232 230 231 234 237 241 244 246 249 252 256 261 266 272 276 281 285 290 294 299 303 306 309 311 313 314 315 314 313 312 312 312 313 315 316 317 318 319 320 322 324 325 326 327 328 329 330 331 334 336 338 340 342 344 346 348 350 353 355 357 359 1 3 5 7 10 12 15 17 19 19 21 24
242 236 236 244 252 256 255 251 247 244 240 236 233 232 234 236 239 242 246 249 252 254 258 261 265 270 275 279 283 287 291 295 298 301 304 306 308 309 310 310 310 309 310 310 311 312 314 314 315 315 316 318 319 320 321 323 323 324 326 327 329 332 334 336 337 339 340 343 345 346 349 352 353 355 357 359 1 3 6 9 12 14 15 17 19
238 238 245 253 258 259 256 249 243 240 238 236 234 234 236 238 241 245 249 253 256 259 262 264 268 272 275 278 282 285 288 291 295 298 300 303 305 305 306 307 307 307 308 308 309 309 310 310 310 310 311 312 314 315 316 318 319 321 322 324 325 327 329 331 333 334 335 337 339 340 342 345 347 349 351 352 354 356 359 1 4 7 10 12 14
240 243 248 253 256 256 251 244 239 238 236 235 235 236 238 241 244 248 251 255 259 262 265 268 271 274 277 281 284 286 289 291 294 296 298 300 301 302 303 304 304 305 305 306 307 308 308 308 307 307 307 308 309 311 313 315 317 319 319 320 321 323 324 326 328 329 330 331 332 334 336 338 339 341 343 345 347 349 351 353 355 358 1 5 8
245 245 246 248 250 249 245 240 238 237 236 236 236 237 240 243 246 250 253 256 259 262 265 268 270 273 276 279 282 284 286 288 290 293 295 297 298 300 301 302 302 302 303 304 305 306 306 306 305 305 306 306 307 308 310 312 314 316 317 317 317 319 321 322 323 324 325 326 327 328 330 331 333 334 336 337 339 341 343 344 346 348 351 354 357
246 244 242 242 243 242 240 239 238 238 238 239 238 239 241 243 246 249 253 256 259 262 264 267 269 272 274 276 278 280 282 284 287 290 293 295 296 298 299 300 300 301 302 303 304 304 304 305 306 306 306 306 306 307 307 308 310 311 313 314 315 316 318 319 320 320 321 322 323 323 324 325 326 327 328 329 330 332 334 336 337 339 340 343 345
Height
5806 5806 5806 5806 5806 5806 5805 5805 5804 5804 5804 5803 5803 5802 5802 5801 5800 5798 5797 5795 5793 5792 5790 5787 5785 5783 5781 5779 5778 5776 5774 5772 5770 5768 5766 5763 5761 5759 5757 5755 5752 5750 5747 5744 5741 5737 5733 5730 5728 5724 5721 5718 5714 5710 5707 5703 5700 5697 5694 5691 5687 5684 5682 5679 5677 5677 5675 5672 5669 5668 5667 5667 5666 5664 5663 5663 5663 5663 5662 5661 5661 5661 5662 5664 5665
5804 5804 5804 5804 5804 5803 5803 5803 5802 5802 5801 5801 5800 5799 5799 5798 5796 5795 5793 5791 5790 5788 5786 5784 5782 5780 5778 5776 5774 5772 5770 5768 5766 5764 5761 5759 5757 5755 5753 5750 5748 5745 5742 5739 5736 5732 5728 5724 5721 5718 5715 5711 5707 5704 5700 5696 5693 5689 5686 5683 5679 5676 5673 5670 5668 5666 5665 5663 5660 5658 5657 5656 5655 5654 5653 5652 5651 5652 5652 5652 5651 5652 5653 5654 5656
5801 5801 5801 5801 5801 5801 5801 5800 5800 5799 5798 5798 5797 5796 5795 5794 5792 5791 5789 5788 5786 5784 5782 5780 5778 5776 5774 5772 5770 5768 5766 5764 5762 5759 5757 5755 5753 5751 5749 5746 5743 5740 5737 5734 5731 5728 5723 5719 5715 5711 5708 5705 5700 5696 5692 5689 5685 5681 5678 5674 5671 5668 5664 5661 5658 5656 5655 5653 5651 5647 5646 5646 5644 5643 5643 5642 5641 5640 5641 5641 5641 5641 5643 5644 5645
5798 5798 5798 5798 5798 5798 5797 5797 5796 5796 5795 5794 5793 5793 5791 5790 5789 5787 5786 5784 5782 5780 5778 5776 5774 5772 5770 5768 5766 5764 5762 5760 5758 5756 5754 5751 5749 5747 5744 5742 5739 5736 5732 5728 5725 5722 5718 5713 5708 5705 5701 5697 5693 5689 5685 5681 5677 5674 5670 5667 5663 5660 5656 5653 5649 5646 5644 5643 5641 5638 5635 5634 5634 5632 5631 5631 5631 5629 5629 5630 5630 5631 5632 5633 5635
5795 5795 5795 5795 5795 5795 5794 5793 5793 5792 5792 5791 5790 5789 5788 5786 5785 5783 5782 5780 5778 5776 5774 5772 5770 5768 5766 5764 5762 5760 5758 5756 5754 5752 5750 5747 5745 5743 5740 5737 5734 5730 5727 5723 5720 5716 5712 5707 5702 5698 5695 5691 5686 5682 5678 5673 5670 5666 5662 5659 5656 5652 5648 5645 5641 5638 5635 5633 5631 5629 5625 5623 5622 5621 5619 5619 5619 5619 5618 5618 5619 5619 5621 5622 5624
5792 5792 5792 5792 5792 5791 5791 5790 5790 5789 5788 5787 5786 5785 5784 5783 5781 5780 5778 5776 5774 5772 5770 5768 5766 5764 5762 5760 5758 5756 5754 5752 5750 5748 5746 5743 5741 5738 5735 5732 5729 5725 5721 5717 5714 5711 5707 5702 5696 5692 5688 5684 5680 5676 5671 5667 5662 5659 5655 5652 5648 5644 5641 5637 5633 5630 5626 5623 5621 5619 5616 5612 5610 5609 5608 5606 5606 5606 5607 5608 5608 5607 5608 5610 5612
5789 5789 5789 5789 5788 5788 5788 5787 5786 5786 5785 5783 5782 5781 5780 5779 5778 5776 5774 5773 5771 5769 5766 5764 5762 5760 5759 5757 5755 5753 5751 5748 5746 5744 5742 5739 5736 5733 5730 5727 5724 5720 5716 5712 5708 5705 5701 5697 5692 5686 5681 5677 5673 5669 5665 5661 5656 5651 5648 5645 5641 5637 5633 5629 5625 5621 5618 5615 5611 5608 5606 5602 5599 5597 5596 5594 5593 5592 5592 5594 5597 5597 5596 5597 5600
5786 5785 5785 5785 5785 5785 5784 5783 5783 5782 5781 5780 5779 5778 5776 5775 5774 5772 5771 5769 5767 5765 5763 5761 5759 5757 5755 5753 5751 5749 5747 5744 5742 5740 5737 5735 5732 5729 5725 5722 5719 5715 5711 5706 5702 5699 5695 5691 5686 5681 5676 5671 5667 5662 5658 5654 5650 5645 5641 5637 5634 5630 5625 5621 5617 5613 5609 5605 5601 5598 5594 5591 5587 5584 5583 5581 5580 5579 5577 5578 5581 5584 5584 5586 5588
5782 5782 5782 5782 5782 5781 5781 5780 5779 5778 5777 5776 5775 5774 5773 5772 5770 5769 5767 5765 5763 5761 5759 5757 5755 5753 5751 5749 5747 5745 5743 5740 5738 5736 5733 5730 5728 5724 5721 5717 5714 5710 5706 5701 5697 5693 5689 5685 5680 5676 5671 5665 5660 5656 5651 5648 5644 5639 5635 5631 5627 5622 5618 5613 5608 5603 5599 5595 5591 5587 5583 5579 5575 5571 5569 5567 5566 5565 5564 5563 5564 5567 5570 5574 5576
5778 5778 5778 5778 5778 5778 5777 5776 5776 5775 5774 5773 5772 5771 5769 5768 5767 5765 5763 5761 5759 5757 5755 5753 5751 5749 5747 5745 5743 5741 5739 5736 5734 5732 5729 5726 5723 5720 5716 5712 5709 5705 5701 5696 5692 5687 5683 5679 5674 5670 5666 5661 5655 5651 5646 5642 5637 5633 5628 5623 5619 5614 5609 5604 5599 5593 5589 5585 5580 5575 5571 5567 5562 5558 5555 5553 5551 5550 5548 5548 5548 5550 5552 5557 5563
5774 5774 5775 5775 5774 5774 5773 5773 5772 5771 5770 5769 5768 5767 5765 5764 5763 5761 5759 5757 5755 5753 5752 5749 5747 5745 5743 5741 5739 5737 5735 5732 5730 5728 5725 5722 5719 5715 5712 5708 5704 5700 5695 5691 5687 5682 5678 5674 5669 5665 5661 5656 5652 5647 5642 5637 5632 5627 5622 5616 5611 5606 5600 5595 5590 5584 5579 5574 5569 5563 5557 5553 5549 5544 5541 5538 5536 5535 5533 5531 5531 5533 5536 5540 5547
5771 5771 5771 5771 5770 5770 5769 5769 5768 5767 5766 5765 5764 5763 5762 5760 5759 5757 5756 5754 5752 5750 5748 5746 5744 5742 5740 5738 5735 5733 5731 5729 5726 5724 5721 5718 5714 5711 5707 5703 5699 5695 5691 5686 5682 5677 5673 5669 5665 5660 5656 5652 5648 5643 5638 5633 5627 5622 5616 5610 5604 5598 5592 5586 5580 5575 5569 5563 5557 5551 5545 5541 5536 5532 5528 5525 5523 5521 5519 5517 5515 5516 5519 5524 5529
5767 5767 5767 5767 5766 5766 5765 5764 5764 5763 5762 5761 5760 5759 5758 5756 5755 5753 5752 5750 5748 5746 5744 5742 5740 5738 5736 5734 5732 5730 5727 5725 5722 5720 5717 5714 5710 5706 5703 5699 5695 5691 5686 5682 5678 5673 5669 5665 5661 5656 5652 5648 5644 5639 5634 5629 5623 5617 5611 5605 5598 5591 5585 5578 5570 5563 5557 5551 5547 5543 5537 5532 5527 5524 5520 5515 5513 5510 5508 5506 5503 5502 5504 5507 5512
5763 5763 5763 5762 5762 5761 5761 5760 5759 5759 5758 5757 5756 5755 5754 5752 5751 5750 5748 5746 5744 5742 5740 5739 5737 5735 5733 5730 5728 5726 5724 5721 5719 5716 5713 5710 5706 5702 5698 5695 5690 5687 5683 5678 5674 5669 5665 5661 5657 5653 5649 5644 5640 5635 5630 5625 5619 5613 5606 5600 5593 5586 5578 5571 5563 5555 5549 5544 5540 5537 5532 5526 5520 5516 5513 5509 5505 5501 5497 5496 5494 5492 5492 5493 5497
5759 5759 5758 5758 5758 5757 5757 5756 5755 5755 5754 5753 5752 5751 5750 5749 5747 5746 5744 5742 5741 5739 5737 5735 5733 5731 5729 5727 5725 5722 5720 5717 5715 5712 5709 5706 5702 5698 5694 5691 5686 5682 5679 5675 5670 5666 5662 5658 5654 5650 5645 5641 5636 5631 5626 5621 5615 5609 5602 5595 5588 5580 5572 5564 5556 5550 5545 5540 5536 5531 5526 5520 5514 5510 5506 5502 5499 5494 5490 5487 5485 5483 5482 5483 5484
5755 5754 5754 5754 5754 5753 5753 5752 5752 5751 5750 5749 5748 5747 5746 5745 5743 5742 5740 5739 5737 5735 5733 5732 5730 5728 5726 5724 5721 5719 5717 5714 5711 5708 5705 5702 5698 5694 5691 5687 5683 5679 5675 5671 5667 5663 5659 5655 5651 5646 5642 5637 5633 5628 5622 5617 5611 5605 5598 5591 5584 5575 5567 5558 5551 5546 5542 5538 5533 5527 5520 5514 5509 5504 5500 5496 5492 5488 5484 5481 5478 5475 5474 5474 5474
5750 5750 5750 5750 5750 5749 5749 5748 5748 5747 5746 5745 5744 5743 5742 5741 5740 5738 5737 5735 5734 5732 5730 5728 5726 5724 5722 5720 5718 5716 5713 5711 5708 5705 5701 5698 5694 5690 5687 5683 5679 5675 5672 5668 5664 5660 5656 5652 5648 5644 5639 5634 5630 5625 5619 5613 5607 5601 5595 5588 5580 5572 5563 5555 5549 5544 5540 5535 5530 5523 5516 5510 5505 5500 5495 5490 5486 5482 5479 5475 5472 5469 5467 5466 5466
5746 5746 5746 5746 5746 5745 5745 5744 5744 5743 5742 5741 5740 5740 5739 5737 5736 5735 5733 5732 5730 5729 5727 5725 5723 5721 5719 5717 5715 5712 5710 5707 5704 5701 5698 5694 5690 5686 5683 5679 5676 5672 5668 5665 5662 5658 5654 5649 5645 5641 5636 5631 5627 5621 5615 5609 5604 5598 5592 5584 5576 5568 5559 5553 5548 5543 5539 5533 5527 5520 5513 5507 5502 5497 5492 5487 5482 5477 5472 5468 5464 5462 5460 5458 5457
5742 5742 5742 5742 5741 5741 5741 5740 5739 5739 5738 5737 5737 5736 5735 5734 5733 5731 5730 5728 5727 5725 5723 5721 5719 5717 5715 5713 5711 5709 5706 5704 5701 5697 5694 5690 5687 5683 5680 5676 5673 5669 5666 5662 5658 5655 5651 5647 5642 5638 5633 5629 5624 5618 5612 5606 5601 5595 5588 5581 5573 5564 5556 5550 5546 5542 5537 5532 5525 5518 5512 5506 5500 5495 5489 5483 5478 5472 5466 5461 5457 5454 5453 5451 5450
5738 5738 5737 5737 5737 5737 5736 5736 5735 5734 5734 5733 5733 5732 5731 5730 5729 5728 5726 5725 5723 5722 5720 5718 5716 5714 5711 5709 5707 5705 5703 5700 5697 5694 5690 5687 5684 5681 5677 5674 5670 5667 5663 5660 5656 5652 5648 5644 5640 5635 5631 5626 5621 5615 5609 5604 5598 5592 5585 5578 5570 5561 5554 5548 5543 5539 5535 5529 5523 5516 5510 5504 5498 5492 5486 5481 5475 5469 5463 5458 5453 5449 5447 5445 5444
5733 5733 5733 5733 5733 5732 5732 5731 5731 5730 5730 5729 5729 5728 5727 5726 5725 5724 5723 5721 5720 5718 5716 5714 5712 5710 5708 5706 5704 5702 5699 5697 5694 5690 5687 5684 5681 5678 5675 5672 5668 5665 5662 5658 5654 5650 5646 5642 5638 5634 5629 5624 5619 5613 5608 5602 5596 5590 5583 5575 5566 5558 5551 5546 5541 5537 5533 5528 5522 5515 5509 5502 5496 5490 5485 5479 5473 5467 5461 5456 5451 5447 5444 5442 5440
5729 5728 5728 5728 5728 5728 5727 5727 5727 5726 5726 5725 5724 5724 5723 5722 5721 5720 5719 5717 5716 5714 5712 5710 5708 5706 5704 5702 5700 5698 5696 5693 5690 5687 5685 5682 5679 5676 5673 5670 5666 5663 5660 5656 5652 5649 5645 5642 5637 5633 5628 5623 5617 5612 5607 5601 5594 5588 5581 5573 5565 5557 5550 5545 5540 5536 5532 5527 5521 5514 5507 5501 5495 5490 5484 5477 5471 5465 5460 5455 5450 5446 5443 5440 5438
5724 5724 5724 5724 5723 5723 5722 5723 5722 5722 5721 5721 5720 5719 5719 5718 5717 5716 5715 5713 5712 5710 5708 5706 5704 5702 5700 5699 5697 5695 5693 5690 5687 5685 5682 5679 5676 5674 5671 5668 5665 5662 5658 5655 5651 5648 5645 5641 5636 5631 5626 5621 5616 5611 5606 5600 5593 5586 5579 5572 5565 5558 5550 5544 5539 5535 5531 5526 5521 5514 5506 5500 5495 5490 5484 5477 5470 5464 5458 5454 5450 5446 5443 5440 5437
5720 5720 5719 5719 5719 5718 5718 5718 5718 5717 5717 5716 5715 5715 5714 5713 5712 5711 5710 5709 5708 5706 5704 5702 5700 5698 5696 5695 5694 5692 5689 5687 5685 5682 5680 5677 5674 5672 5669 5666 5663 5660 5657 5654 5651 5647 5643 5639 5635 5630 5625 5620 5615 5611 5605 5599 5592 5585 5579 5572 5566 5559 5551 5544 5539 5535 5530 5526 5521 5514 5507 5500 5495 5489 5483 5476 5470 5463 5457 5453 5450 5447 5444 5441 5438
5715 5715 5715 5714 5714 5714 5714 5714 5713 5713 5712 5712 5711 5710 5709 5709 5708 5707 5706 5705 5703 5702 5700 5698 5697 5695 5693 5691 5690 5688 5686 5684 5682 5680 5677 5675 5672 5670 5667 5664 5661 5658 5655 5653 5650 5646 5642 5638 5634 5629 5625 5620 5615 5610 5604 5598 5592 5585 5579 5573 5567 5560 5552 5545 5539 5534 5529 5525 5520 5514 5507 5501 5495 5490 5483 5477 5471 5465 5460 5456 5452 5449 5446 5443 5441
5710 5710 5709 5709 5709 5710 5710 5709 5709 5708 5708 5707 5707 5706 5705 5704 5703 5702 5701 5700 5699 5698 5696 5695 5694 5692 5690 5689 5687 5685 5683 5681 5679 5676 5675 5673 5670 5667 5665 5662 5660 5657 5654 5652 5649 5645 5641 5638 5634 5629 5625 5620 5615 5610 5604 5598 5592 5585 5580 5574 5567 5560 5553 5546 5539 5533 5528 5525 5520 5514 5509 5503 5497 5492 5486 5480 5474 5468 5464 5460 5456 5453 5450 5447 5445
5705 5705 5704 5705 5705 5705 5705 5704 5704 5704 5703 5703 5702 5701 5700 5700 5699 5698 5697 5696 5695 5694 5693 5691 5690 5689 5687 5686 5684 5682 5680 5678 5676 5674 5672 5670 5668 5666 5663 5661 5658 5656 5653 5651 5648 5644 5641 5637 5633 5629 5625 5620 5615 5609 5604 5598 5593 5587 5580 5574 5568 5561 5553 5546 5540 5533 5529 5525 5520 5516 5511 5506 5500 5495 5490 5484 5478 5472 5467 5463 5460 5458 5455 5453 5451
5700 5700 5700 5700 5701 5700 5700 5699 5699 5699 5699 5698 5697 5696 5696 5695 5694 5693 5692 5692 5691 5690 5689 5688 5687 5685 5684 5683 5681 5679 5677 5675 5673 5672 5670 5668 5666 5664 5662 5660 5657 5655 5653 5650 5647 5643 5640 5637 5633 5629 5625 5621 5616 5610 5605 5599 5594 5588 5582 5575 5569 5562 5555 5549 5542 5536 5531 5526 5521 5517 5513 5509 5503 5498 5493 5487 5481 5476 5471 5468 5465 5463 5461 5459 5458
5695 5695 5695 5696 5696 5695 5695 5695 5695 5694 5694 5693 5693 5692 5691 5690 5690 5689 5688 5688 5688 5687 5686 5685 5683 5682 5681 5680 5678 5676 5674 5673 5671 5670 5668 5666 5664 5663 5661 5659 5656 5654 5652 5649 5646 5643 5640 5637 5633 5630 5626 5622 5616 5611 5606 5601 5595 5589 5583 5577 5571 5564 5558 5552 5545 5538 5532 5527 5522 5518 5515 5511 5506 5501 5496 5491 5485 5480 5476 5473 5470 5468 5466 5465 5465
5690 5690 5691 5691 5691 5691 5691 5691 5690 5690 5690 5689 5688 5687 5686 5686 5685 5685 5685 5685 5684 5683 5682 5681 5681 5680 5678 5676 5675 5673 5672 5671 5669 5668 5666 5665 5663 5661 5659 5658 5655 5653 5651 5648 5645 5642 5639 5636 5633 5630 5626 5622 5617 5612 5607 5602 5596 5590 5584 5579 5573 5567 5560 5554 5548 5541 5535 5529 5523 5519 5516 5512 5508 5504 5500 5495 5490 5485 5481 5478 5475 5474 5472 5472 5472
5685 5686 5686 5686 5686 5686 5686 5686 5686 5686 5686 5685 5684 5683 5682 5682 5682 5682 5682 5681 5681 5680 5679 5679 5678 5677 5675 5673 5672 5671 5670 5669 5667 5666 5665 5663 5662 5660 5658 5656 5654 5652 5650 5647 5644 5641 5639 5636 5633 5629 5625 5621 5617 5612 5607 5602 5597 5592 5586 5580 5574 5569 5563 5556 5550 5544 5538 5532 5527 5521 5518 5514 5510 5507 5503 5499 5494 5490 5486 5483 5480 5479 5478 5478 5478
5680 5681 5681 5682 5682 5682 5682 5682 5682 5682 5681 5680 5680 5679 5679 5679 5679 5679 5678 5678 5678 5677 5677 5676 5675 5673 5672 5671 5670 5669 5668 5667 5666 5665 5663 5662 5660 5659 5657 5655 5653 5651 5649 5646 5643 5641 5638 5635 5632 5629 5625 5621 5617 5612 5608 5603 5598 5593 5587 5582 5576 5571 5565 5559 5552 5546 5541 5535 5530 5525 5520 5516 5513 5509 5506 5503 5499 5495 5491 5488 5485 5483 5483 5482 5482
5675 5676 5677 5677 5677 5678 5678 5678 5677 5677 5677 5676 5676 5677 5677 5676 5676 5676 5675 5675 5675 5675 5674 5673 5672 5670 5669 5668 5668 5667 5666 5665 5664 5663 5662 5660 5659 5657 5656 5654 5652 5650 5648 5645 5642 5640 5637 5634 5631 5628 5624 5621 5617 5612 5608 5603 5598 5593 5588 5583 5578 5572 5567 5561 5555 5549 5544 5539 5533 5528 5524 5520 5516 5513 5509 5506 5503 5500 5496 5493 5490 5488 5486 5486 5486
5670 5671 5672 5672 5673 5673 5673 5673 5672 5672 5673 5673 5673 5674 5674 5674 5673 5673 5673 5672 5672 5672 5671 5670 5669 5668 5667 5666 5666 5665 5665 5664 5662 5661 5660 5659 5657 5656 5654 5653 5651 5649 5646 5644 5641 5639 5636 5634 5630 5627 5624 5620 5616 5612 5608 5604 5599 5594 5590 5585 5580 5575 5569 5564 5559 5554 5548 5542 5537 5532 5527 5523 5519 5516 5512 5509 5507 5505 5501 5498 5495 5492 5490 5489 5489
5665 5666 5667 5668 5668 5668 5668 5668 5668 5668 5669 5669 5670 5671 5671 5671 5670 5670 5670 5670 5669 5669 5668 5667 5666 5666 5665 5665 5664 5664 5663 5662 5661 5660 5659 5658 5656 5655 5653 5651 5649 5647 5645 5642 5640 5638 5635 5633 5630 5626 5623 5620 5616 5612 5608 5604 5600 5596 5591 5586 5582 5577 5572 5567 5562 5557 5552 5546 5541 5535 5530 5526 5522 5518 5515 5512 5510 5508 5505 5502 5499 5497 5495 5493 5493
5660 5661 5662 5663 5663 5663 5664 5664 5664 5665 5665 5666 5667 5668 5668 5667 5667 5667 5667 5667 5667 5666 5666 5665 5664 5664 5663 5663 5663 5662 5661 5660 5660 5659 5658 5656 5655 5653 5652 5650 5648 5645 5643 5641 5639 5637 5634 5632 5629 5626 5622 5619 5616 5612 5609 5605 5601 5597 5592 5588 5583 5579 5574 5570 5565 5560 5555 5550 5545 5540 5535 5530 5526 5522 5518 5514 5511 5509 5507 5505 5503 5501 5499 5497 5496
5655 5657 5657 5658 5659 5660 5660 5660 5661 5662 5663 5663 5664 5664 5664 5665 5665 5664 5664 5664 5664 5664 5663 5662 5662 5662 5662 5661 5661 5660 5660 5659 5658 5657 5656 5655 5653 5652 5650 5648 5646 5644 5642 5640 5638 5635 5633 5630 5628 5625 5622 5619 5615 5612 5609 5605 5601 5597 5593 5589 5585 5580 5576 5572 5567 5563 5558 5554 5549 5544 5539 5535 5530 5526 5522 5518 5515 5512 5510 5508 5506 5504 5502 5501 5500
5651 5652 5653 5654 5655 5655 5656 5657 5658 5659 5660 5661 5661 5661 5661 5662 5662 5662 5662 5662 5662 5661 5661 5661 5660 5660 5660 5659 5659 5658 5658 5657 5656 5655 5654 5653 5652 5650 5648 5647 5645 5643 5641 5639 5637 5634 5632 5629 5626 5624 5621 5618 5615 5612 5609 5605 5602 5598 5594 5590 5586 5582 5578 5573 5569 5565 5561 5557 5552 5548 5544 5539 5534 5530 5526 5523 5519 5516 5513 5511 5510 5508 5506 5505 5504
5647 5648 5649 5650 5651 5651 5652 5654 5655 5656 5657 5657 5658 5658 5658 5659 5659 5659 5660 5659 5659 5659 5658 5658 5658 5657 5657 5657 5657 5656 5656 5655 5654 5653 5652 5651 5650 5648 5647 5645 5643 5641 5639 5637 5635 5633 5630 5628 5625 5623 5620 5617 5614 5611 5608 5605 5602 5598 5595 5591 5587 5584 5580 5576 5572 5568 5564 5560 5556 5551 5547 5543 5539 5534 5531 5527 5524 5521 5518 5515 5513 5511 5510 5508 5507
5645 5645 5646 5646 5647 5648 5650 5651 5652 5653 5654 5654 5655 5655 5656 5656 5656 5657 5657 5657 5657 5656 5656 5656 5656 5655 5655 5655 5655 5654 5654 5653 5653 5652 5651 5649 5648 5647 5645 5644 5642 5640 5638 5636 5634 5631 5628 5626 5624 5621 5619 5616 5613 5610 5607 5605 5602 5598 5595 5592 5588 5585 5581 5578 5574 5570 5566 5562 5558 5555 5551 5547 5543 5539 5535 5532 5528 5525 5522 5519 5517 5515 5513 5511 5510
5641 5642 5642 5643 5644 5645 5647 5648 5649 5649 5650 5651 5652 5652 5653 5653 5654 5654 5654 5654 5654 5654 5654 5654 5654 5654 5654 5653 5653 5653 5653 5652 5651 5650 5649 5648 5646 5645 5644 5642 5640 5638 5636 5634 5631 5629 5627 5624 5622 5620 5617 5615 5612 5610 5607 5604 5601 5598 5595 5592 5589 5586 5582 5579 5575 5572 5568 5564 5561 5557 5554 5550 5547 5543 5539 5536 5532 5529 5526 5523 5521 5518 5516 5515 5513
5638 5638 5639 5640 5641 5642 5644 5645 5645 5646 5647 5647 5648 5649 5650 5650 5651 5652 5652 5652 5652 5652 5652 5652 5652 5652 5652 5652 5652 5651 5651 5650 5649 5648 5647 5646 5644 5643 5641 5639 5638 5636 5633 5631 5629 5627 5625 5623 5620 5618 5616 5613 5611 5609 5606 5603 5600 5597 5595 5592 5589 5586 5583 5580 5576 5573 5570 5566 5563 5560 5556 5553 5550 5547 5543 5540 5537 5534 5531 5528 5525 5523 5520 5518 5517
5635 5636 5636 5638 5638 5640 5641 5641 5642 5642 5643 5644 5645 5646 5647 5648 5648 5649 5649 5649 5649 5649 5649 5649 5649 5650 5650 5650 5649 5649 5648 5647 5647 5646 5644 5643 5641 5640 5638 5636 5635 5633 5630 5628 5626 5624 5622 5620 5618 5616 5614 5612 5609 5607 5605 5602 5600 5597 5594 5591 5589 5586 5583 5580 5577 5574 5571 5568 5565 5562 5558 5555 5552 5549 5546 5544 5541 5538 5535 5532 5530 5527 5525 5522 5520
5632 5633 5634 5635 5636 5637 5637 5638 5638 5639 5639 5640 5642 5643 5644 5645 5646 5646 5647 5647 5647 5647 5647 5647 5647 5647 5647 5647 5647 5646 5645 5645 5644 5643 5642 5640 5639 5637 5635 5633 5632 5630 5628 5626 5624 5622 5619 5617 5615 5613 5611 5609 5607 5605 5603 5601 5598 5595 5593 5590 5588 5585 5583 5580 5577 5575 5572 5569 5566 5563 5560 5557 5554 5552 5549 5546 5544 5541 5539 5536 5533 5531 5528 5526 5524
5629 5630 5631 5632 5633 5633 5634 5635 5635 5635 5636 5637 5639 5640 5641 5642 5643 5643 5644 5644 5644 5644 5644 5644 5645 5645 5645 5645 5644 5643 5643 5642 5641 5640 5639 5637 5636 5634 5633 5631 5629 5627 5626 5624 5621 5619 5617 5614 5612 5610 5608 5607 5605 5603 5601 5599 5597 5594 5591 5589 5587 5584 5582 5579 5577 5575 5572 5569 5567 5564 5561 5559 5556 5553 5551 5549 5546 5544 5541 5539 5537 5534 5532 5530 5527
5626 5627 5627 5628 5629 5630 5630 5631 5631 5632 5633 5634 5635 5637 5638 5639 5640 5640 5641 5641 5641 5641 5642 5642 5642 5642 5642 5641 5641 5640 5639 5639 5638 5637 5636 5634 5633 5632 5630 5628 5627 5625 5623 5622 5619 5617 5615 5612 5610 5607 5605 5603 5601 5600 5598 5596 5594 5592 5590 5587 5585 5583 5581 5578 5576 5574 5572 5569 5567 5564 5562 5559 5557 5554 5552 5550 5548 5545 5543 5541 5539 5537 5535 5533 5530
5623 5623 5624 5625 5626 5626 5627 5627 5628 5629 5630 5631 5633 5634 5635 5636 5636 5637 5638 5638 5639 5639 5639 5639 5639 5639 5639 5638 5638 5638 5637 5636 5635 5634 5633 5632 5630 5629 5627 5626 5624 5622 5620 5619 5617 5615 5613 5611 5608 5605 5602 5599 5598 5596 5595 5593 5592 5590 5588 5585 5583 5581 5579 5577 5575 5573 5571 5569 5566 5564 5561 5559 5557 5555 5553 5551 5548 5547 5545 5542 5540 5538 5537 5535 5533
5619 5620 5620 5621 5622 5623 5623 5624 5625 5626 5627 5629 5630 5631 5632 5632 5633 5634 5635 5635 5635 5636 5636 5636 5636 5636 5635 5635 5635 5634 5634 5633 5632 5631 5630 5628 5627 5625 5624 5622 5620 5618 5617 5615 5614 5612 5611 5609 5607 5604 5601 5598 5595 5593 5591 5590 5589 5587 5585 5583 5581 5579 5577 5575 5573 5571 5569 5567 5565 5563 5561 5559 5557 5555 5553 5551 5549 5547 5545 5543 5542 5540 5538 5536 5534
5616 5616 5617 5617 5618 5619 5620 5621 5622 5623 5624 5625 5627 5628 5628 5629 5630 5631 5631 5632 5632 5632 5632 5632 5632 5632 5631 5631 5630 5630 5629 5628 5628 5627 5626 5624 5623 5622 5620 5619 5617 5615 5613 5611 5610 5609 5607 5606 5604 5602 5599 5597 5593 5590 5587 5586 5585 5584 5582 5580 5578 5576 5575 5573 5571 5569 5567 5565 5563 5562 5560 5558 5556 5554 5552 5550 5548 5547 5545 5543 5542 5540 5539 5537 5535
5612 5613 5613 5614 5615 5615 5616 5617 5619 5620 5621 5622 5623 5624 5625 5626 5626 5627 5628 5628 5628 5629 5629 5628 5628 5628 5628 5627 5626 5626 5625 5624 5623 5622 5621 5620 5619 5617 5616 5614 5613 5611 5609 5608 5606 5604 5603 5602 5600 5599 5597 5594 5592 5589 5585 5582 5580 5579 5578 5577 5575 5574 5572 5570 5568 5566 5565 5563 5561 5559 5558 5556 5554 5553 5551 5549 5547 5546 5544 5543 5541 5540 5538 5537 5536
5608 5609 5610 5610 5611 5612 5613 5614 5616 5617 5618 5619 5620 5621 5621 5622 5623 5623 5624 5624 5624 5625 5624 5624 5624 5624 5624 5623 5623 5622 5621 5620 5619 5618 5617 5615 5614 5612 5611 5610 5608 5607 5605 5604 5602 5600 5598 5597 5596 5594 5593 5591 5589 5586 5583 5580 5577 5575 5574 5572 5571 5570 5568 5567 5565 5563 5562 5560 5558 5557 5555 5554 5552 5551 5549 5547 5546 5544 5543 5541 5540 5539 5537 5536 5535